Simultaneous Nadir Overpasses (SNOs) Predictions

Prediction of SNOs between GOES-16 and AQUA Satellite Orbit:

Table of predicted SNOs for the next 14.0 days since TLE Epoch: 2/3/2024
Index Date Time (GOES-16) GOES-16 Lat,Lon AQUA Lat,Lon Distance(km) Time Diff (sec)
1 02/03/2024 07:14:46 -0.07, -75.21 0.53, -77.91 308.65 80
2 02/05/2024 06:56:36 -0.06, -75.21 -0.31, -74.13 122.96 80
3 02/05/2024 19:17:08 0.06, -75.22 -0.79, -79.10 442.00 80
4 02/07/2024 19:01:37 0.05, -75.22 0.03, -75.31 9.82 80
5 02/09/2024 18:48:45 0.05, -75.23 0.83, -71.51 423.11 80
6 02/10/2024 07:09:09 -0.05, -75.23 0.19, -76.45 138.12 80
7 02/12/2024 06:50:56 -0.04, -75.25 -0.59, -72.65 296.03 80
8 02/12/2024 19:11:28 0.04, -75.26 -0.47, -77.62 268.34 80
9 02/14/2024 18:58:35 0.04, -75.29 0.36, -73.82 166.99 80
10 02/15/2024 07:18:58 -0.04, -75.30 0.70, -78.75 393.30 80
